TimeEDT,TemperatureF,Dew PointF,Humidity,Sea Level PressureIn,VisibilityMPH,Wind Direction,Wind SpeedMPH,Gust SpeedMPH,PrecipitationIn,Events,Conditions,WindDirDegrees,DateUTC
12:53 AM,66.9,62.1,84,29.89,10.0,SSW,6.9,-,N/A,,Overcast,200,2013-09-08 04:53:00
1:53 AM,66.9,61.0,81,29.89,10.0,SSW,9.2,-,N/A,,Overcast,210,2013-09-08 05:53:00
2:37 AM,66.2,62.6,88,29.89,10.0,SW,4.6,-,0.00,,Overcast,220,2013-09-08 06:37:00
2:53 AM,66.9,62.1,84,29.89,10.0,SW,5.8,-,0.00,,Overcast,220,2013-09-08 06:53:00
3:49 AM,68.0,62.6,83,29.89,10.0,WNW,11.5,-,0.00,Rain,Light Rain,290,2013-09-08 07:49:00
3:50 AM,68.0,64.0,87,29.88,10.0,West,11.5,-,0.00,Rain,Light Rain,280,2013-09-08 07:50:00
4:10 AM,69.8,66.2,88,29.89,6.0,WNW,11.5,-,0.00,,Overcast,300,2013-09-08 08:10:00
4:50 AM,69.8,64.4,83,29.90,6.0,NNW,8.1,-,0.00,,Overcast,340,2013-09-08 08:50:00
4:53 AM,69.1,64.9,87,29.90,6.0,North,10.4,18.4,0.00,,Overcast,350,2013-09-08 08:53:00
5:53 AM,66.9,64.0,90,29.92,8.0,North,9.2,20.7,N/A,,Overcast,360,2013-09-08 09:53:00
6:14 AM,66.2,64.4,94,29.93,10.0,NNE,9.2,-,N/A,,Overcast,20,2013-09-08 10:14:00
6:34 AM,66.2,62.6,88,29.95,10.0,North,12.7,23.0,N/A,,Overcast,10,2013-09-08 10:34:00
6:53 AM,66.0,61.0,84,29.95,10.0,NNE,9.2,18.4,N/A,,Overcast,20,2013-09-08 10:53:00
7:24 AM,66.2,60.8,83,29.97,10.0,NNE,10.4,20.7,N/A,,Overcast,30,2013-09-08 11:24:00
7:41 AM,66.2,60.8,83,29.97,10.0,NE,12.7,17.3,N/A,,Overcast,40,2013-09-08 11:41:00
7:53 AM,66.0,61.0,84,29.98,10.0,NE,11.5,19.6,N/A,,Overcast,40,2013-09-08 11:53:00
8:08 AM,64.4,60.8,88,30.00,10.0,ENE,11.5,-,N/A,,Overcast,60,2013-09-08 12:08:00
8:53 AM,63.0,59.0,87,30.01,8.0,ENE,9.2,-,0.00,Rain,Light Rain,70,2013-09-08 12:53:00
9:32 AM,60.8,53.6,77,30.04,10.0,NE,15.0,23.0,0.00,,Overcast,40,2013-09-08 13:32:00
9:53 AM,61.0,53.1,75,30.04,10.0,NE,11.5,-,0.00,,Overcast,50,2013-09-08 13:53:00
10:38 AM,62.6,51.8,68,30.05,10.0,ENE,9.2,-,N/A,,Overcast,60,2013-09-08 14:38:00
10:53 AM,63.0,52.0,67,30.05,10.0,NE,12.7,-,N/A,,Overcast,50,2013-09-08 14:53:00
11:53 AM,64.9,50.0,58,30.06,10.0,NE,10.4,-,N/A,,Overcast,40,2013-09-08 15:53:00
12:53 PM,66.0,48.0,52,30.07,10.0,NNE,9.2,17.3,N/A,,Clear,20,2013-09-08 16:53:00
1:53 PM,66.0,46.9,50,30.07,10.0,North,8.1,-,N/A,,Clear,350,2013-09-08 17:53:00
2:53 PM,66.9,48.0,51,30.08,10.0,North,10.4,17.3,N/A,,Clear,350,2013-09-08 18:53:00
3:53 PM,66.0,46.9,50,30.07,10.0,NNE,9.2,-,N/A,,Clear,20,2013-09-08 19:53:00
4:53 PM,66.0,46.9,50,30.07,10.0,North,8.1,-,N/A,,Clear,360,2013-09-08 20:53:00
5:53 PM,66.0,48.0,52,30.08,10.0,NNE,8.1,-,N/A,,Clear,20,2013-09-08 21:53:00
6:53 PM,63.0,46.9,56,30.08,10.0,Variable,5.8,-,N/A,,Clear,0,2013-09-08 22:53:00
7:53 PM,57.9,48.0,70,30.09,10.0,Variable,3.5,-,N/A,,Clear,0,2013-09-08 23:53:00
8:53 PM,55.0,46.9,74,30.10,10.0,SSE,5.8,-,N/A,,Clear,160,2013-09-09 00:53:00
9:53 PM,52.0,46.9,83,30.11,10.0,South,5.8,-,N/A,,Clear,190,2013-09-09 01:53:00
10:53 PM,53.1,45.0,74,30.12,10.0,South,4.6,-,N/A,,Clear,180,2013-09-09 02:53:00
11:53 PM,51.1,45.0,80,30.12,10.0,South,5.8,-,N/A,,Clear,190,2013-09-09 03:53:00